Location: La Comballaz
(46.3780°N, 7.0817°E)
Time: 01:57:36
(UTC+00:00)

X-37B - Pass Details

Date: 09 December 2021
Orbit: 334 x 337 km, 45.0° (Epoch: 11 January)

Event Time Altitude Azimuth Distance (km) Brightness Sun altitude
Rises 17:53:28 0° 250° (WSW) 2,100 5.8 -21.2°
Reaches altitude 10° 17:55:30 10° 245° (WSW) 1,265 4.3 -21.6°
Enters shadow 17:57:14 31° 227° (SW) 617 2.1 -21.9°
